Regional Weather Roundup
Issued by NWS

Home | Current Version | Previous Version | Text Only | Print | Product List | Glossary On
Versions: 1 2 3 4 5 6 7 8 9 10 11 12 13 14 15 16 17 18 19 20 21 22 23 24 25 26 27
000
ASUS45 KBOI 300910
RWRID

IDAHO REGIONAL WEATHER ROUNDUP
NATIONAL WEATHER SERVICE BOISE ID
300 AM MDT MON MAY 30 2016

NOTE: "FAIR" INDICATES FEW OR NO CLOUDS BELOW 12000 FEET
WITH NO SIGNIFICANT WEATHER AND/OR OBSTRUCTIONS TO VISIBILITY

IDZ012-014-301000-
SOUTHWEST IDAHO


CITY           SKY/WX    TMP DP  RH WIND       PRES   REMARKS
BOISE          CLEAR     58  40  51 W9        30.05R
CALDWELL       CLEAR     56  38  50 W8        30.07R
MOUNTAIN HOME  CLEAR     59  46  61 NW12      30.04R
$$

IDZ016-017-301000-
SOUTHCENTRAL IDAHO


CITY           SKY/WX    TMP DP  RH WIND       PRES   REMARKS
BURLEY         MOCLDY    55  45  68 SW9       30.03S
JEROME         PTCLDY    56  44  64 SW7       30.05R
TWIN FALLS     PTCLDY    57  40  52 S13       30.05R
$$

IDZ019>023-301000-
SOUTHEAST IDAHO


CITY           SKY/WX    TMP DP  RH WIND       PRES   REMARKS
IDAHO FALLS    CLOUDY    53  42  66 S12       30.05R
POCATELLO      CLOUDY    46  41  82 W6        30.05R
REXBURG        CLOUDY    51  40  65 SW7       30.04S
$$

IDZ006-010-011-018-031-032-301000-
CENTRAL IDAHO MOUNTAINS


CITY           SKY/WX    TMP DP  RH WIND       PRES   REMARKS
MCCALL         CLEAR     41  36  82 CALM      30.12R
HAILEY         CLEAR     45  34  65 NW9       30.11R
STANLEY          N/A     38  27  64 S7        30.16R WCI  33
SALMON         CLEAR     52  37  58 E5        30.05R
CHALLIS        MOCLDY    47  29  49 NW3       30.07R
$$

IDZ002-004-006-007-026-301000-
NORTHERN IDAHO


CITY           SKY/WX    TMP DP  RH WIND       PRES   REMARKS
LEWISTON       CLOUDY    61  37  41 W9        30.09R
LOWELL           N/A     54  50  86 CALM      30.10R
COEUR D`ALENE  CLEAR     45  36  70 CALM      30.07S
MULLAN PASS    PTCLDY    38  33  82 NW8       30.09S WCI  32
$$




USA.gov is the U.S. government's official web portal to all federal, state and local government web resources and services.